GW4256 Weather Reports


time (UTC)temp
C
wind
direction
speed
KPH
gust
KPH
rain 1hr
cm
rain 24hr
cm
rain mn
cm
humidity
%
barometer
mb
20260508063018 2 15 0.0 0.0 0.00 0.00 0.00 89 1016.5
20260508061520 3 20 0.0 0.0 0.00 0.00 0.00 89 1016.4
20260508060008 3 20 0.0 0.0 0.00 0.00 0.00 89 1016.2
20260508054512 3 20 0.0 0.0 0.00 0.00 0.00 89 1016.1
20260508053017 3 20 0.0 0.0 0.00 0.00 0.00 88 1015.9
20260508051521 3 20 0.0 0.0 0.00 0.00 0.00 88 1015.9
20260508050033 4 20 0.0 0.0 0.00 0.00 0.00 87 1015.9
20260508044510 4 31 0.0 0.0 0.00 0.00 0.00 87 1015.9
20260508043016 5 17 0.0 0.0 0.00 0.00 0.00 87 1015.7
20260508041517 5 17 0.0 0.0 0.00 0.00 0.00 86 1015.6
20260508040034 5 17 0.0 0.0 0.00 0.00 0.00 85 1015.4
20260508034524 5 17 0.0 0.0 0.00 0.00 0.00 85 1015.2
20260508033012 5 37 0.0 0.0 0.00 0.00 0.00 84 1015.1
20260508031516 6 37 0.0 0.0 0.00 0.00 0.00 83 1014.9
20260508030021 6 37 0.0 0.0 0.00 0.03 0.00 82 1014.8
20260508024524 6 37 0.0 0.0 0.00 0.05 0.00 81 1014.5
20260508023023 6 37 0.0 0.0 0.00 0.08 0.00 80 1014.3
20260508021514 7 37 0.0 0.0 0.00 0.13 0.00 78 1014.1
20260508020027 7 37 0.0 0.0 0.00 0.13 0.00 76 1014.0
20260508014523 8 15 0.0 0.0 0.00 0.13 0.00 76 1013.8
20260508013027 8 38 0.0 0.0 0.00 0.13 0.00 74 1013.6
20260508011526 8 359 0.0 3.2 0.00 0.13 0.00 74 1013.4
20260508010018 9 359 0.0 4.8 0.00 0.13 0.00 72 1013.2
20260508004519 10 160 0.0 0.0 0.00 0.13 0.00 70 1013.0
20260508003025 10 75 0.0 3.2 0.00 0.15 0.00 68 1012.8
20260508001539 11 359 0.0 4.8 0.00 0.15 0.00 65 1012.6
20260508000016 11 360 0.0 0.0 0.00 0.15 0.00 65 1012.3
20260507234518 12 324 1.6 3.2 0.00 0.15 0.00 59 1012.2
20260507233013 13 204 3.2 6.4 0.00 0.15 0.00 50 1011.9
20260507231507 13 176 0.0 3.2 0.00 0.15 0.00 56 1011.6
20260507230019 14 319 0.0 6.4 0.00 0.15 0.00 51 1011.3
20260507224519 14 314 1.6 17.7 0.00 0.15 0.00 48 1011.3
20260507223021 15 342 4.8 16.1 0.00 0.20 0.00 47 1011.2
20260507221505 15 358 4.8 12.9 0.00 0.20 0.00 44 1011.1
20260507220019 16 223 1.6 11.3 0.00 0.20 0.00 47 1010.8
20260507214512 15 338 1.6 12.9 0.00 0.20 0.00 46 1010.7
20260507213017 16 25 6.4 16.1 0.00 0.20 0.00 45 1010.6
20260507211522 16 305 6.4 14.5 0.00 0.23 0.00 43 1010.2
20260507210008 16 124 4.8 12.9 0.00 0.23 0.00 44 1010.3
20260507204509 16 353 4.8 22.5 0.00 0.23 0.00 43 1010.2
20260507203027 17 246 4.8 17.7 0.00 0.23 0.00 44 1010.2
20260507201522 16 342 6.4 20.9 0.00 0.23 0.00 46 1010.3
20260507200028 17 159 4.8 24.1 0.00 0.23 0.00 47 1010.1
20260507194509 17 34 6.4 20.9 0.00 0.23 0.00 47 1010.4
20260507193028 16 155 6.4 19.3 0.00 0.23 0.00 51 1010.7
20260507191521 18 72 8.0 27.4 0.00 0.23 0.00 47 1010.6
20260507190026 16 22 3.2 19.3 0.00 0.23 0.00 53 1010.8
20260507184524 17 27 1.6 11.3 0.00 0.23 0.00 49 1010.9
20260507183014 18 37 6.4 12.9 0.00 0.23 0.00 50 1010.8
20260507181518 16 58 3.2 12.9 0.00 0.23 0.00 54 1011.0
20260507180005 16 358 1.6 12.9 0.00 0.23 0.00 52 1011.2
20260507174504 16 18 3.2 14.5 0.00 0.23 0.00 52 1011.3
20260507173008 16 91 1.6 9.7 0.00 0.23 0.00 55 1011.3
20260507171517 15 105 1.6 11.3 0.00 0.23 0.00 57 1011.6
20260507170039 15 278 1.6 14.5 0.00 0.23 0.00 60 1011.9
20260507164504 15 207 0.0 4.8 0.00 0.23 0.00 62 1011.9
20260507163008 14 146 1.6 8.0 0.00 0.23 0.00 66 1012.2
20260507161512 13 173 3.2 6.4 0.00 0.23 0.00 67 1012.3
20260507160018 13 169 0.0 3.2 0.00 0.23 0.00 65 1012.6
20260507154523 13 64 0.0 3.2 0.00 0.23 0.00 68 1012.8
20260507153009 12 358 1.6 8.0 0.00 0.23 0.00 69 1013.0
20260507151511 12 20 1.6 8.0 0.00 0.23 0.00 70 1012.9
20260507150031 12 353 1.6 11.3 0.00 0.23 0.00 72 1013.0
20260507144520 12 360 3.2 8.0 0.00 0.23 0.00 75 1013.1
20260507143028 12 314 3.2 8.0 0.00 0.23 0.00 75 1013.0
20260507141508 11 356 3.2 8.0 0.00 0.23 0.00 77 1013.1
20260507140018 11 44 1.6 4.8 0.00 0.25 0.00 81 1013.5
20260507134520 11 351 0.0 3.2 0.00 0.25 0.00 83 1013.7
20260507133024 11 58 1.6 6.4 0.00 0.25 0.00 83 1013.6
20260507131533 11 1 1.6 8.0 0.00 0.28 0.00 83 1013.6
20260507130014 11 62 1.6 8.0 0.00 0.38 0.00 84 1013.6
20260507124517 11 1 1.6 8.0 0.00 0.43 0.00 85 1013.6
20260507123020 11 1 0.0 4.8 0.00 0.46 0.00 84 1013.5
20260507121526 12 360 1.6 3.2 0.00 0.46 0.00 87 1013.3
20260507120037 11 157 0.0 3.2 0.00 0.46 0.00 92 1013.2
20260507114515 11 296 0.0 0.0 0.00 0.46 0.00 94 1013.4
20260507113019 11 118 0.0 0.0 0.00 0.53 0.00 94 1013.0
20260507111524 11 101 0.0 0.0 0.00 0.53 0.00 94 1012.9
20260507110024 11 101 0.0 0.0 0.00 0.61 0.00 94 1012.9
20260507104526 11 101 0.0 0.0 0.00 0.71 0.00 94 1012.7
20260507103019 11 101 0.0 0.0 0.00 0.71 0.00 94 1012.5
20260507101524 11 137 0.0 0.0 0.00 0.71 0.00 94 1012.3
20260507100033 11 203 0.0 0.0 0.00 0.71 0.00 94 1012.1
20260507094524 11 352 0.0 3.2 0.00 0.71 0.00 94 1012.3
20260507093026 11 45 0.0 1.6 0.00 0.71 0.00 94 1012.3
20260507091520 11 45 0.0 3.2 0.00 0.71 0.00 93 1012.2
20260507090008 11 25 0.0 3.2 0.00 0.71 0.00 93 1012.7
20260507084511 11 353 0.0 3.2 0.00 0.71 0.00 93 1012.4
20260507083013 11 12 0.0 3.2 0.00 0.71 0.00 93 1012.8
20260507081534 11 1 0.0 3.2 0.00 0.71 0.00 93 1012.6
20260507080022 11 6 1.6 4.8 0.00 0.71 0.00 93 1012.2
20260507074513 11 360 0.0 3.2 0.00 0.71 0.00 93 1012.3
20260507073010 11 360 1.6 4.8 0.00 0.71 0.00 93 1012.1
20260507071517 12 343 0.0 0.0 0.00 0.71 0.00 94 1012.2
20260507070021 12 314 0.0 0.0 0.00 0.71 0.00 94 1012.3
20260507064524 12 314 0.0 0.0 0.00 0.71 0.00 94 1012.8